Regional Weather Roundup
Issued by NWS Goodland, KS

Home | Current Version | Previous Version | Graphics & Text | Print | Product List | Glossary On
Versions: 1 2 3 4 5 6 7 8 9 10 11 12 13 14 15 16 17 18 19 20 21 22 23 24 25 26 27 28 29 30 31 32 33 34 35 36 37 38 39 40 41 42 43 44 45 46 47 48 49 50
000
ASUS43 KGLD 222259
RWRGLD

GOODLAND FORECAST AREA HOURLY WEATHER ROUNDUP
NATIONAL WEATHER SERVICE GOODLAND KS
500 PM MDT WED OCT 22 2014

...OFFICIAL OBSERVATIONS...

CITY           SKY/WX    TMP DP  RH WIND       PRES   REMARKS
GOODLAND KS    CLEAR     71  45  39 NE7       30.03S
HILL CITY KS   CLOUDY    70  58  65 N12       29.98R
IMPERIAL NEB   CLEAR     70  40  33 N9        30.02S
MCCOOK NEB     CLEAR     69  51  52 NE7       30.00S
AKRON CO       SUNNY     66  36  32 E9        30.06S
BURLINGTON CO  SUNNY     71  39  31 N8        30.05R
LIMON CO       LGT RAIN  57  44  62 W9G22     30.11R
$$

...UNOFFICIAL OBSERVATIONS...

CITY           SKY/WX    TMP DP  RH WIND       PRES   REMARKS
COLBY KS       CLEAR     72  52  49 N8        30.02S
GOVE KS          N/A     74  32  21 MISG        N/A
NORTON KS      PTCLDY    70  52  52 N3        29.98S
SHARON SPRINGS   N/A     71  49  46 NE9G16      N/A
TRENTON NEB      N/A     71  32  23 NE6         N/A
KIT CARSON CO    N/A     72  42  34 N6G13       N/A
YUMA CO          N/A     68  35  29 NE6         N/A
$$



USA.gov is the U.S. government's official web portal to all federal, state and local government web resources and services.